Temperature
27 28 29 28 27 27 25 24 23 23 22 21 20 19 19 18 17 17 17 16 16 15 14 14 13 13 12 12 12 11 11 11 10 10 10 10 10 10 10 10 10 10 10 10
26 28 28 27 26 25 24 23 23 22 22 21 20 19 18 18 17 17 16 16 15 14 14 13 13 12 12 12 11 11 11 11 10 10 10 10 10 10 10 10 9 9 9 10
25 27 27 24 23 23 23 23 22 21 21 20 19 18 18 17 17 16 16 15 14 14 13 13 12 12 12 11 11 11 11 10 10 10 10 10 10 9 9 9 9 9 9 9
25 26 24 22 23 23 22 22 22 21 20 19 18 18 17 17 17 15 15 14 14 13 13 12 12 12 11 11 11 11 10 10 10 10 10 10 9 9 9 9 9 9 9 9
25 25 24 22 22 21 20 20 20 19 19 18 17 17 17 17 15 15 14 14 13 13 12 12 12 11 11 11 10 10 10 10 10 9 9 9 9 9 8 8 8 8 8 9
24 23 23 21 22 21 21 20 18 18 18 17 16 16 16 15 14 14 13 13 13 12 12 12 11 11 11 10 10 10 10 9 9 9 9 9 8 8 8 8 8 8 8 8
24 23 23 21 21 21 19 18 18 17 17 16 16 15 15 14 14 13 13 13 12 12 12 11 11 10 10 10 9 9 9 9 9 8 8 8 8 8 8 8 8 8 8 8
22 22 21 21 20 19 18 18 17 16 16 15 15 15 14 14 13 13 13 12 12 11 11 11 10 10 9 9 9 8 8 8 8 8 8 8 8 8 8 8 8 8 8 8
22 21 21 20 20 19 18 17 16 16 15 15 14 14 14 13 13 13 12 12 11 11 10 10 9 9 8 7 7 7 7 7 7 7 7 7 7 7 7 7 7 8 8 8
22 22 21 20 19 18 17 16 15 15 15 14 14 14 13 13 13 12 11 11 10 9 9 8 7 7 6 6 6 6 6 6 6 6 6 6 7 7 7 7 7 8 8 8
21 21 19 19 17 16 16 15 15 15 14 14 14 13 13 12 12 11 10 10 9 8 7 6 6 5 5 5 5 5 5 5 5 5 6 6 6 6 7 7 7 7 8 8
19 19 18 17 16 16 15 15 14 14 14 13 13 13 12 11 11 10 9 8 7 6 5 5 5 4 4 4 4 4 4 4 5 5 5 5 6 6 7 7 7 7 7 8
18 17 17 16 16 15 15 14 14 14 13 13 13 12 11 10 9 8 7 6 6 5 4 4 4 4 4 4 4 4 4 4 5 5 5 5 5 6 6 7 7 7 7 7
17 17 16 16 15 15 14 14 13 13 13 12 12 11 10 9 8 7 6 5 5 4 4 4 4 4 4 4 4 4 4 5 5 5 5 5 5 6 6 6 7 7 7 7
17 16 15 15 14 14 13 13 13 12 12 11 11 10 8 7 7 6 5 5 4 4 4 4 4 4 4 4 4 4 5 5 5 5 5 5 6 6 6 6 6 7 7 7
16 15 15 14 14 13 13 12 12 12 11 10 9 8 7 7 6 5 4 4 4 4 4 4 4 4 4 4 5 5 5 5 5 5 5 5 6 6 6 6 6 7 7 7
15 15 14 14 13 13 12 12 11 11 10 9 8 7 7 6 5 4 4 4 4 4 4 4 4 5 5 5 5 5 5 5 5 5 6 6 6 6 6 6 7 7 7 7
15 14 14 13 13 12 11 11 10 10 9 8 8 7 6 5 4 4 4 4 4 4 5 5 5 5 5 5 5 5 5 6 6 6 6 6 6 6 6 6 7 7 7 7
15 14 13 13 12 11 11 10 10 9 9 8 7 6 5 5 4 4 4 4 4 4 5 5 5 5 6 6 6 6 6 6 6 6 6 6 6 7 6 7 7 7 7 7
14 13 13 12 11 10 10 9 9 9 8 7 6 6 5 4 4 4 4 4 4 4 5 5 6 6 6 6 6 6 7 7 7 7 7 7 7 7 7 7 7 7 7 7
13 12 12 11 10 10 9 9 9 8 8 7 6 5 5 4 4 4 4 4 5 5 5 6 6 6 6 6 7 7 7 7 7 7 7 7 7 7 7 7 7 7 7 7
12 11 11 10 10 9 9 9 9 8 7 6 6 5 5 4 4 4 4 4 5 5 6 6 6 7 7 7 7 7 7 7 7 7 7 7 7 7 7 7 7 7 8 8
11 11 10 10 9 9 9 9 8 8 7 6 6 5 5 4 4 4 4 5 5 5 6 6 7 7 7 8 7 7 7 7 7 7 7 7 7 7 8 8 8 8 9 9
11 10 10 10 9 9 9 9 8 8 7 6 6 5 5 4 4 4 4 5 5 6 6 7 7 8 8 8 8 8 8 8 8 8 8 8 8 8 8 9 9 9 10 10
11 10 10 9 9 9 9 9 8 8 7 6 6 5 5 4 4 4 5 5 5 6 6 7 7 8 8 8 8 8 8 9 9 9 9 9 9 9 9 9 10 10 10 11
11 11 10 10 10 9 9 8 8 7 7 6 5 5 4 4 5 5 5 5 6 6 6 7 7 8 8 8 9 9 9 9 9 9 9 9 10 10 10 10 11 11 11 12
11 11 11 10 10 9 8 8 8 7 7 6 5 5 4 4 4 5 5 5 6 6 6 7 7 8 8 8 9 9 9 10 10 10 10 10 10 11 11 11 11 12 12 12
Wind_Speed
17 18 14 12 10 9 9 10 11 14 14 6 4 8 11 13 15 16 18 17 13 11 9 9 9 9 10 10 9 9 9 10 10 10 10 10 11 11 12 12 13 11 11 10
17 16 11 8 9 8 9 10 12 15 14 7 8 10 13 15 18 21 19 15 14 13 12 12 11 11 11 10 10 9 10 11 10 10 10 10 11 11 12 12 11 11 11 11
14 15 11 5 10 9 10 12 13 17 15 12 13 15 17 18 21 19 16 17 17 16 13 11 11 10 10 10 9 10 10 11 11 11 11 10 12 12 11 11 11 10 10 10
12 13 7 6 7 9 11 13 16 14 13 14 17 19 18 18 16 17 21 21 18 17 16 14 13 13 11 13 12 11 11 11 11 11 12 11 10 11 10 9 9 10 10 11
7 12 5 5 7 10 13 17 12 13 17 20 22 23 20 17 20 21 21 17 16 18 19 16 16 15 13 13 13 13 13 12 11 12 12 11 11 10 9 9 10 11 11 10
9 12 11 6 9 12 14 10 13 19 21 22 24 22 19 21 23 22 20 17 16 19 18 15 14 14 13 15 15 15 13 12 12 11 12 12 11 10 10 9 10 11 11 10
10 12 4 8 14 16 12 13 19 20 21 22 22 21 22 25 23 20 18 19 17 16 14 12 12 12 13 15 15 14 13 12 12 11 11 12 11 10 10 10 11 11 11 10
9 10 5 11 13 12 12 15 18 21 22 22 23 24 24 24 21 20 20 21 20 14 13 12 12 13 14 14 14 14 14 15 14 12 14 15 10 9 9 9 10 10 10 10
6 7 8 9 11 12 15 18 19 21 23 23 25 26 26 24 21 21 20 19 18 17 15 13 12 12 16 15 15 15 15 15 15 14 13 13 12 12 10 9 10 10 9 8
8 9 11 12 14 16 18 19 21 22 23 24 25 26 26 23 21 20 20 20 18 17 18 17 16 16 16 17 15 16 16 15 14 14 14 13 11 10 9 9 9 8 7 6
11 11 13 13 17 18 19 20 22 22 23 24 25 26 25 21 20 20 19 17 17 18 19 20 18 18 18 18 16 17 17 16 15 14 13 11 10 9 10 9 8 7 5 4
9 11 13 16 18 19 20 21 22 23 24 24 24 24 24 23 20 20 21 21 21 21 22 22 21 21 20 18 17 16 15 14 12 11 10 10 10 10 11 11 10 9 6 4
8 12 14 17 18 19 20 22 23 23 24 25 24 23 23 22 21 22 23 23 22 22 22 22 22 21 20 18 16 16 15 14 11 10 10 9 9 9 8 7 8 9 9 8
9 12 15 15 18 19 21 23 23 24 23 23 23 23 23 23 23 23 22 22 22 22 22 22 21 20 19 17 16 16 15 15 12 10 9 9 9 8 7 6 5 5 7 9
11 13 14 16 17 19 20 22 23 23 23 23 23 23 23 23 23 23 22 21 21 22 22 21 20 19 17 16 16 15 13 10 9 8 8 8 8 8 7 7 6 5 4 6
12 13 14 16 18 20 21 23 23 23 23 23 23 23 23 22 21 22 21 21 21 22 21 20 18 17 16 16 14 11 9 11 9 7 6 7 7 7 6 6 5 5 6 6
12 13 15 17 18 20 21 21 21 22 22 23 23 23 23 23 21 21 22 21 20 20 18 16 17 17 16 14 11 8 7 6 7 7 6 5 5 6 5 5 5 5 6 9
10 12 13 15 17 19 20 21 20 21 21 22 23 22 22 22 21 22 22 22 20 19 17 17 17 18 15 12 9 7 5 4 3 4 4 4 4 4 4 5 5 6 7 9
10 12 13 15 16 17 18 19 20 20 20 20 21 21 21 20 20 21 21 20 19 18 19 20 21 16 13 12 12 7 5 3 2 2 2 3 4 4 4 4 5 7 8 9
10 11 13 15 16 16 17 17 18 18 19 19 20 21 21 20 20 20 20 17 14 14 18 20 18 14 12 12 13 7 5 3 2 0 1 2 3 3 4 4 6 7 8 10
10 11 13 14 15 15 16 17 17 18 18 19 19 20 20 20 20 19 17 16 17 19 20 18 13 12 12 13 12 6 4 3 2 1 1 2 3 3 3 4 5 6 8 9
8 10 12 13 14 15 15 15 16 17 18 18 19 18 18 18 19 18 16 13 17 20 17 12 12 15 18 16 8 6 5 3 2 1 1 2 2 3 4 4 6 8 9 9
7 9 10 12 13 14 14 14 16 16 17 18 17 17 17 16 14 14 16 15 16 21 16 12 17 21 22 12 7 5 4 3 2 0 1 2 3 4 5 7 8 9 9 9
6 8 9 10 12 12 13 14 14 13 16 16 15 15 15 14 14 13 12 17 19 19 15 15 19 22 18 10 7 5 3 2 1 1 2 3 3 5 6 8 10 10 10 11
6 8 8 9 10 10 11 13 13 14 15 14 16 16 14 12 12 14 14 17 20 18 15 16 18 19 14 11 10 8 5 4 3 2 3 4 5 6 8 10 10 9 9 9
5 6 6 7 7 7 9 10 11 12 12 14 14 14 14 13 14 14 13 16 20 18 15 13 14 14 12 12 11 10 8 6 5 3 4 5 6 7 8 8 10 8 8 7
6 5 3 5 6 7 8 9 10 11 12 13 14 13 14 15 15 16 16 15 15 15 14 13 13 13 13 12 12 12 10 9 8 6 5 5 6 7 7 7 6 7 7 7
Wind_Direction
313 310 315 316 330 351 357 348 332 331 334 354 351 333 329 324 321 317 313 311 315 317 314 308 302 295 292 288 284 281 278 274 270 268 267 266 268 268 268 268 273 274 279 283
308 309 311 323 12 15 359 346 334 325 324 358 338 329 325 324 321 315 315 322 325 318 312 308 305 301 296 292 286 279 276 276 275 272 271 271 273 271 269 269 270 272 276 284
310 313 312 25 29 9 348 341 335 323 329 344 334 327 325 324 315 316 330 327 318 314 311 306 302 297 292 291 287 284 280 279 278 277 276 273 279 280 279 284 285 284 285 286
307 320 340 72 35 8 343 333 331 335 347 340 327 323 321 312 322 337 327 319 316 312 309 304 301 299 294 293 288 284 282 282 281 280 281 277 276 278 282 285 285 285 282 281
325 334 351 105 39 3 337 321 5 357 337 328 326 319 312 326 335 324 316 315 313 310 306 302 299 296 291 291 291 289 289 284 283 280 281 281 280 277 280 281 281 280 279 274
321 326 332 55 13 345 321 305 14 344 332 328 324 317 318 326 318 315 316 313 307 304 301 298 297 297 293 293 290 287 286 283 280 277 276 277 277 278 277 275 275 275 274 271
333 321 3 24 352 344 327 329 336 329 325 323 321 314 313 316 316 315 311 309 307 303 301 300 299 293 289 289 288 289 290 288 285 279 278 277 272 269 269 270 271 270 273 271
334 321 358 3 349 344 320 320 325 325 323 320 316 314 314 314 314 313 313 311 311 308 304 301 300 298 297 297 299 299 296 291 286 283 282 282 277 275 270 265 266 267 266 266
328 315 337 344 335 335 336 331 327 324 320 319 317 315 315 315 315 315 315 314 314 312 309 309 310 310 308 307 305 300 294 289 285 284 280 278 275 273 270 263 260 263 263 263
315 315 342 342 342 342 337 328 323 322 320 319 316 316 316 316 318 318 319 319 320 319 318 318 317 313 307 303 299 295 291 288 285 282 278 273 268 264 261 260 257 259 262 263
315 344 339 334 340 334 327 326 323 321 320 319 318 318 319 320 322 322 323 324 327 324 319 314 311 306 303 299 296 292 289 285 281 277 273 271 267 258 254 252 250 250 261 243
327 340 326 325 330 328 328 325 324 323 322 322 322 322 324 324 325 327 327 326 322 318 314 311 308 304 300 295 290 286 284 282 278 273 268 264 262 263 244 239 242 231 221 200
332 330 324 322 325 330 326 325 326 325 324 325 327 328 327 328 330 329 325 323 321 317 313 309 306 302 300 297 292 285 280 276 272 267 262 259 255 251 249 235 230 220 201 181
335 332 325 326 328 327 328 327 327 326 327 329 330 332 333 331 329 326 324 322 318 314 310 308 305 302 302 299 294 287 281 274 267 260 255 251 247 243 239 232 220 214 201 188
338 333 325 326 327 330 330 330 329 329 331 333 335 336 335 332 329 326 323 322 319 314 312 310 308 305 305 302 296 289 283 273 261 256 249 242 239 235 230 228 218 211 178 172
328 327 328 330 331 331 332 333 332 332 334 336 337 337 335 332 328 326 326 325 322 319 316 315 314 313 312 307 301 294 284 273 259 252 247 237 230 228 221 211 204 199 185 168
327 330 334 333 331 332 333 333 333 334 336 338 338 337 335 333 331 330 328 326 322 318 318 321 323 323 319 315 312 304 294 281 253 243 238 232 227 220 206 196 193 193 182 164
329 331 332 332 333 332 333 334 335 337 338 338 338 338 337 335 333 330 328 326 325 325 330 332 331 329 327 330 327 312 303 283 253 237 227 218 212 204 189 186 189 180 156 156
330 332 335 337 337 335 334 335 336 337 340 341 342 340 336 334 332 330 329 329 330 334 336 335 330 330 336 344 338 325 320 311 269 224 204 185 190 179 177 181 173 162 153 157
331 336 339 338 338 337 336 337 335 338 342 345 342 339 338 337 335 334 332 331 333 334 331 328 329 333 339 345 336 329 334 334 338 322 176 170 161 155 160 161 155 153 157 160
334 338 339 337 336 337 338 336 336 341 345 347 343 341 339 337 337 337 335 335 336 336 333 324 333 340 341 335 323 329 345 2 14 27 70 101 122 138 151 154 155 156 157 160
336 336 336 335 334 335 335 335 341 345 347 346 344 343 342 341 340 338 336 337 333 333 334 333 342 339 335 328 327 340 356 11 14 43 106 140 161 167 170 170 164 163 165 165
333 333 332 331 332 328 330 339 346 348 348 347 346 346 345 342 341 338 337 335 335 332 335 339 337 334 332 334 333 339 347 348 340 15 140 160 167 167 169 170 166 162 160 158
323 328 325 326 325 325 336 343 346 349 349 348 349 350 347 344 341 340 333 329 335 335 339 337 334 335 335 341 344 351 357 1 29 92 118 130 140 143 145 147 148 151 151 153
313 315 316 325 325 333 338 342 346 351 351 351 351 353 352 350 343 339 338 339 342 342 344 341 339 340 346 350 356 3 12 27 37 57 91 110 123 129 136 140 144 150 153 158
287 293 309 309 319 334 344 345 348 351 352 352 351 353 353 352 348 346 345 345 347 346 349 350 351 351 356 360 5 11 14 20 31 56 95 118 126 131 136 143 149 153 154 153
261 275 287 321 347 358 349 346 350 352 357 355 351 354 356 355 354 351 351 351 352 352 354 355 357 358 1 5 9 12 15 19 25 35 61 94 120 131 140 150 150 144 145 147
Height
1480 1471 1468 1470 1471 1473 1481 1487 1494 1493 1493 1494 1496 1498 1498 1497 1495 1493 1491 1488 1485 1483 1482 1480 1478 1475 1473 1470 1468 1465 1462 1460 1457 1455 1452 1449 1447 1444 1442 1440 1438 1436 1434 1432
1483 1471 1468 1472 1476 1481 1487 1490 1492 1493 1493 1493 1495 1496 1496 1494 1492 1489 1486 1483 1482 1480 1478 1475 1472 1469 1467 1464 1462 1459 1456 1453 1451 1448 1446 1443 1441 1439 1436 1434 1432 1430 1428 1426
1490 1473 1472 1487 1492 1492 1493 1492 1494 1496 1494 1493 1495 1495 1494 1491 1488 1484 1482 1481 1478 1475 1472 1469 1466 1463 1460 1457 1454 1452 1449 1446 1444 1441 1439 1436 1434 1432 1430 1428 1426 1424 1422 1421
1488 1483 1498 1502 1494 1495 1497 1494 1493 1492 1494 1496 1495 1493 1491 1488 1483 1481 1479 1476 1473 1470 1466 1463 1460 1456 1453 1450 1447 1444 1441 1439 1436 1434 1431 1429 1427 1425 1423 1421 1420 1418 1416 1414
1493 1493 1494 1497 1497 1499 1501 1498 1495 1498 1497 1496 1493 1490 1486 1483 1481 1479 1475 1471 1467 1464 1460 1456 1452 1449 1445 1442 1439 1436 1433 1431 1428 1426 1423 1421 1419 1417 1416 1414 1412 1411 1409 1408
1494 1502 1503 1505 1499 1499 1499 1495 1499 1498 1497 1494 1490 1485 1481 1481 1478 1473 1469 1465 1461 1456 1452 1447 1444 1441 1437 1434 1431 1428 1425 1422 1420 1417 1415 1413 1411 1409 1408 1407 1405 1404 1402 1401
1498 1502 1495 1503 1501 1501 1505 1504 1500 1498 1495 1493 1489 1486 1480 1475 1471 1467 1462 1458 1453 1448 1444 1440 1436 1432 1428 1425 1421 1419 1416 1413 1410 1408 1406 1404 1402 1401 1400 1399 1398 1397 1396 1395
1504 1506 1508 1504 1503 1506 1507 1502 1499 1497 1494 1490 1485 1480 1475 1470 1465 1460 1455 1450 1445 1440 1435 1432 1428 1423 1418 1415 1412 1409 1406 1403 1401 1399 1397 1396 1394 1393 1392 1392 1391 1390 1389 1388
1508 1510 1505 1504 1505 1505 1503 1501 1498 1495 1490 1486 1480 1475 1469 1463 1458 1453 1448 1442 1438 1433 1427 1423 1419 1415 1410 1405 1402 1399 1395 1393 1390 1388 1387 1386 1385 1384 1384 1384 1384 1383 1383 1383
1505 1502 1503 1504 1504 1504 1502 1500 1496 1492 1487 1482 1476 1469 1463 1457 1451 1446 1441 1436 1430 1425 1419 1414 1410 1406 1400 1395 1391 1388 1384 1382 1380 1378 1376 1376 1376 1376 1376 1377 1377 1378 1378 1378
1504 1503 1505 1504 1504 1503 1500 1496 1492 1488 1483 1478 1471 1464 1458 1452 1446 1441 1435 1430 1424 1418 1411 1405 1400 1394 1389 1385 1380 1376 1373 1371 1369 1368 1367 1366 1366 1367 1368 1369 1371 1372 1373 1374
1509 1508 1508 1505 1503 1500 1497 1493 1488 1483 1477 1473 1467 1460 1454 1448 1442 1436 1429 1423 1417 1410 1403 1396 1389 1383 1377 1373 1369 1365 1362 1360 1359 1358 1357 1357 1358 1359 1360 1362 1364 1366 1369 1371
1509 1508 1507 1504 1501 1498 1494 1490 1485 1480 1474 1468 1462 1456 1450 1444 1437 1431 1424 1417 1409 1401 1393 1386 1379 1372 1367 1362 1358 1355 1352 1350 1349 1349 1349 1350 1351 1352 1354 1356 1358 1361 1363 1366
1507 1506 1504 1502 1499 1495 1491 1487 1482 1476 1471 1465 1459 1453 1446 1440 1433 1425 1418 1409 1401 1392 1384 1377 1369 1363 1358 1353 1349 1346 1343 1341 1341 1341 1342 1343 1344 1346 1349 1351 1353 1355 1358 1361
1506 1505 1502 1499 1496 1493 1488 1483 1478 1472 1466 1461 1455 1449 1443 1435 1428 1420 1411 1402 1393 1384 1376 1369 1362 1355 1350 1345 1341 1338 1336 1334 1334 1334 1336 1337 1339 1341 1344 1346 1349 1351 1354 1357
1503 1502 1500 1497 1493 1490 1485 1480 1475 1469 1463 1458 1452 1446 1439 1432 1423 1415 1406 1397 1387 1378 1370 1363 1356 1350 1344 1339 1335 1332 1330 1329 1329 1330 1331 1333 1335 1337 1340 1342 1345 1348 1351 1354
1501 1499 1497 1494 1491 1487 1483 1478 1473 1467 1461 1455 1449 1443 1435 1427 1418 1409 1400 1392 1383 1375 1367 1360 1353 1347 1341 1336 1332 1328 1326 1325 1325 1327 1328 1330 1332 1335 1337 1340 1342 1345 1348 1351
1499 1498 1495 1493 1489 1484 1480 1476 1471 1465 1460 1454 1447 1439 1432 1423 1414 1405 1396 1387 1379 1372 1365 1358 1351 1345 1339 1334 1331 1328 1326 1325 1325 1326 1327 1329 1331 1333 1335 1338 1340 1343 1346 1350
1497 1495 1493 1490 1487 1483 1478 1473 1468 1463 1458 1451 1444 1437 1430 1421 1412 1403 1394 1386 1377 1370 1363 1356 1350 1345 1340 1335 1332 1329 1327 1326 1326 1326 1327 1328 1330 1332 1334 1336 1338 1342 1345 1349
1494 1492 1490 1487 1484 1480 1476 1471 1466 1461 1456 1449 1442 1435 1427 1418 1410 1401 1393 1385 1378 1371 1364 1357 1351 1346 1341 1337 1333 1331 1328 1327 1327 1327 1328 1329 1330 1332 1333 1335 1338 1341 1345 1350
1491 1489 1487 1484 1481 1477 1474 1469 1464 1459 1454 1448 1441 1433 1425 1417 1408 1400 1392 1384 1377 1371 1364 1358 1353 1348 1343 1338 1335 1332 1330 1329 1328 1328 1329 1329 1330 1332 1334 1336 1339 1342 1346 1351
1489 1487 1485 1482 1478 1475 1471 1467 1463 1458 1452 1446 1439 1432 1424 1416 1407 1399 1393 1386 1378 1371 1365 1359 1354 1349 1344 1340 1336 1334 1331 1330 1329 1328 1328 1329 1330 1332 1334 1336 1340 1344 1349 1354
1486 1484 1482 1479 1476 1473 1469 1465 1461 1456 1451 1445 1438 1431 1424 1416 1408 1400 1392 1386 1379 1373 1366 1361 1356 1351 1346 1341 1338 1335 1333 1331 1329 1329 1328 1329 1330 1332 1335 1338 1342 1347 1352 1357
1483 1481 1479 1477 1474 1471 1467 1463 1460 1455 1450 1445 1439 1432 1424 1416 1408 1402 1395 1387 1381 1374 1368 1363 1358 1353 1348 1344 1340 1337 1335 1333 1332 1331 1331 1331 1333 1335 1338 1342 1346 1351 1356 1362
1480 1478 1477 1474 1472 1469 1466 1462 1458 1454 1449 1444 1438 1432 1425 1418 1410 1403 1396 1389 1382 1376 1370 1366 1361 1356 1351 1347 1344 1341 1339 1337 1336 1336 1336 1337 1339 1341 1344 1348 1352 1357 1362 1366
1476 1475 1474 1472 1470 1467 1464 1461 1457 1453 1449 1443 1438 1432 1425 1418 1411 1404 1397 1391 1385 1379 1374 1369 1364 1360 1356 1352 1349 1347 1345 1343 1342 1342 1342 1344 1346 1348 1352 1355 1359 1363 1366 1370
1473 1472 1471 1470 1468 1466 1463 1460 1457 1453 1449 1444 1438 1433 1426 1419 1413 1406 1400 1394 1388 1383 1378 1373 1369 1365 1362 1358 1356 1353 1351 1350 1349 1349 1349 1351 1353 1355 1358 1361 1364 1368 1371 1374